| time (UTC) | temp F | wind direction | speed knots | gust knots | rain 1hr in | rain 24hr in | rain mn in | humidity % | barometer mb |
| 20260507190108 | 64 | 331 | 0.0 | 0.9 | 0.00 | 0.16 | 0.13 | 36 | 1005.8 |
| 20260507185611 | 64 | 285 | 0.0 | 6.1 | 0.00 | 0.16 | 0.13 | 39 | 1005.9 |
| 20260507185108 | 64 | 264 | 0.9 | 6.1 | 0.00 | 0.16 | 0.13 | 36 | 1006.0 |
| 20260507184610 | 64 | 268 | 0.0 | 2.6 | 0.00 | 0.16 | 0.13 | 36 | 1005.9 |
| 20260507184109 | 64 | 275 | 0.0 | 2.6 | 0.00 | 0.16 | 0.13 | 39 | 1006.0 |
| 20260507183610 | 64 | 283 | 0.0 | 3.5 | 0.00 | 0.16 | 0.13 | 37 | 1006.1 |
| 20260507183108 | 64 | 296 | 0.0 | 3.5 | 0.00 | 0.16 | 0.13 | 37 | 1006.2 |
| 20260507182609 | 64 | 302 | 0.0 | 1.7 | 0.00 | 0.16 | 0.13 | 38 | 1006.1 |
| 20260507182328 | 63 | 20 | 0.0 | 3.5 | 0.00 | 0.16 | 0.13 | 39 | 1006.2 |
| 20260507181610 | 63 | 293 | 0.0 | 3.5 | 0.00 | 0.16 | 0.13 | 37 | 1006.2 |
| 20260507181331 | 63 | 0 | 0.0 | 1.7 | 0.00 | 0.16 | 0.13 | 39 | 1006.2 |
| 20260507180610 | 63 | 313 | 0.0 | 1.7 | 0.00 | 0.16 | 0.13 | 41 | 1006.2 |
| 20260507180107 | 63 | 275 | 0.0 | 0.9 | 0.00 | 0.16 | 0.13 | 43 | 1006.4 |
| 20260507175608 | 63 | 281 | 0.0 | 4.3 | 0.00 | 0.16 | 0.13 | 41 | 1006.3 |
| 20260507175106 | 63 | 285 | 0.0 | 4.3 | 0.00 | 0.16 | 0.13 | 43 | 1006.4 |
| 20260507174608 | 63 | 274 | 0.0 | 2.6 | 0.00 | 0.16 | 0.13 | 43 | 1006.4 |
| 20260507174106 | 62 | 13 | 0.0 | 1.7 | 0.00 | 0.16 | 0.13 | 42 | 1006.4 |
| 20260507173608 | 62 | 302 | 0.0 | 2.6 | 0.00 | 0.16 | 0.13 | 43 | 1006.4 |
| 20260507173108 | 62 | 343 | 0.0 | 2.6 | 0.00 | 0.16 | 0.13 | 44 | 1006.5 |
| 20260507172607 | 62 | 320 | 0.0 | 0.9 | 0.00 | 0.16 | 0.13 | 43 | 1006.5 |
| 20260507172107 | 61 | 110 | 0.0 | 0.9 | 0.00 | 0.16 | 0.13 | 45 | 1006.4 |
| 20260507171606 | 61 | 110 | 0.0 | 7.8 | 0.00 | 0.16 | 0.13 | 45 | 1006.6 |
| 20260507171104 | 61 | 278 | 0.9 | 7.8 | 0.00 | 0.16 | 0.13 | 44 | 1006.7 |
| 20260507170606 | 60 | 293 | 0.0 | 8.7 | 0.00 | 0.16 | 0.13 | 42 | 1006.7 |
| 20260507170104 | 61 | 285 | 0.0 | 8.7 | 0.00 | 0.16 | 0.13 | 42 | 1006.8 |
| 20260507165607 | 61 | 331 | 0.0 | 10.4 | 0.00 | 0.16 | 0.13 | 43 | 1006.8 |
| 20260507165330 | 61 | 281 | 0.9 | 10.4 | 0.00 | 0.16 | 0.13 | 44 | 1006.9 |
| 20260507164832 | 60 | 278 | 0.9 | 6.1 | 0.00 | 0.16 | 0.13 | 43 | 1007.0 |
| 20260507164103 | 60 | 334 | 0.9 | 6.1 | 0.00 | 0.16 | 0.13 | 42 | 1007.1 |
| 20260507163606 | 60 | 334 | 0.0 | 2.6 | 0.00 | 0.16 | 0.13 | 44 | 1007.0 |
| 20260507163102 | 61 | 269 | 0.0 | 2.6 | 0.00 | 0.16 | 0.13 | 42 | 1007.2 |
| 20260507162605 | 61 | 257 | 0.0 | 7.8 | 0.00 | 0.16 | 0.13 | 43 | 1007.2 |
| 20260507162033 | 61 | 285 | 0.9 | 7.8 | 0.00 | 0.16 | 0.13 | 43 | 1007.2 |
| 20260507161757 | 61 | 117 | 0.0 | 0.0 | 0.00 | 0.16 | 0.13 | 48 | 1007.2 |
| 20260507161030 | 60 | 323 | 0.0 | 1.7 | 0.00 | 0.16 | 0.13 | 50 | 1007.4 |
| 20260507160953 | 60 | 85 | 0.0 | 1.7 | 0.00 | 0.16 | 0.13 | 47 | 1007.3 |
| 20260507160002 | 0 | 0.0 | 0.0 | 0.00 | 0.16 | 0.13 | 1007.4 | ||
| 20260507155729 | 59 | 295 | 0.0 | 0.0 | 0.00 | 0.16 | 0.13 | 55 | 1007.4 |
| 20260507154958 | 59 | 295 | 0.0 | 4.3 | 0.00 | 0.16 | 0.13 | 55 | 1007.4 |
| 20260507154500 | 60 | 312 | 0.9 | 4.3 | 0.00 | 0.16 | 0.13 | 57 | 1007.5 |
| 20260507154000 | 60 | 206 | 0.0 | 3.5 | 0.00 | 0.16 | 0.13 | 58 | 1007.4 |
| 20260507153720 | 59 | 309 | 0.0 | 9.6 | 0.00 | 0.16 | 0.13 | 58 | 1007.3 |
| 20260507152958 | 59 | 314 | 0.0 | 9.6 | 0.00 | 0.16 | 0.13 | 57 | 1007.3 |
| 20260507152458 | 59 | 131 | 0.0 | 4.3 | 0.00 | 0.16 | 0.13 | 60 | 1007.6 |
| 20260507152431 | 59 | 0 | 0.0 | 4.3 | 0.00 | 0.16 | 0.13 | 61 | 1007.6 |
| 20260507151718 | 59 | 338 | 0.0 | 4.3 | 0.00 | 0.16 | 0.13 | 63 | 1007.5 |
| 20260507150958 | 59 | 52 | 0.0 | 0.9 | 0.00 | 0.16 | 0.13 | 62 | 1007.6 |
| 20260507150459 | 58 | 266 | 0.0 | 0.9 | 0.00 | 0.16 | 0.13 | 65 | 1007.6 |
| 20260507145957 | 58 | 190 | 0.0 | 4.3 | 0.00 | 0.16 | 0.13 | 64 | 1007.6 |
| 20260507145459 | 58 | 323 | 0.0 | 4.3 | 0.00 | 0.16 | 0.13 | 66 | 1007.7 |
| 20260507145453 | 58 | 295 | 0.0 | 0.0 | 0.00 | 0.16 | 0.13 | 67 | 1007.8 |
| 20260507144458 | 57 | 285 | 0.0 | 1.7 | 0.00 | 0.16 | 0.13 | 67 | 1007.8 |
| 20260507143958 | 57 | 295 | 0.0 | 1.7 | 0.00 | 0.16 | 0.13 | 69 | 1007.8 |
| 20260507143458 | 57 | 324 | 0.0 | 0.9 | 0.00 | 0.16 | 0.13 | 69 | 1007.7 |
| 20260507142956 | 57 | 290 | 0.0 | 0.9 | 0.00 | 0.16 | 0.13 | 71 | 1007.8 |
| 20260507142458 | 56 | 326 | 0.0 | 0.9 | 0.00 | 0.16 | 0.13 | 70 | 1008.0 |
| 20260507141957 | 57 | 300 | 0.0 | 0.9 | 0.00 | 0.16 | 0.13 | 72 | 1007.9 |
| 20260507141719 | 56 | 329 | 0.0 | 0.9 | 0.00 | 0.16 | 0.13 | 73 | 1007.9 |
| 20260507140956 | 55 | 337 | 0.0 | 0.9 | 0.00 | 0.16 | 0.13 | 73 | 1008.0 |
| 20260507140457 | 55 | 265 | 0.0 | 0.9 | 0.00 | 0.16 | 0.13 | 74 | 1008.0 |
| 20260507135956 | 55 | 44 | 0.0 | 0.9 | 0.00 | 0.16 | 0.13 | 74 | 1008.0 |
| 20260507135458 | 55 | 298 | 0.0 | 0.0 | 0.00 | 0.16 | 0.13 | 74 | 1008.0 |
| 20260507135225 | 54 | 282 | 0.0 | 0.9 | 0.00 | 0.16 | 0.13 | 76 | 1008.0 |
| 20260507134457 | 54 | 295 | 0.0 | 0.9 | 0.00 | 0.16 | 0.13 | 76 | 1007.9 |
| 20260507133956 | 54 | 281 | 0.0 | 2.6 | 0.00 | 0.16 | 0.13 | 79 | 1007.9 |
| 20260507133456 | 54 | 252 | 0.0 | 2.6 | 0.00 | 0.16 | 0.13 | 80 | 1007.9 |
| 20260507132955 | 53 | 338 | 0.0 | 1.7 | 0.00 | 0.16 | 0.13 | 82 | 1008.1 |
| 20260507132457 | 53 | 274 | 0.0 | 1.7 | 0.00 | 0.16 | 0.13 | 82 | 1008.2 |
| 20260507131956 | 53 | 265 | 0.0 | 1.7 | 0.00 | 0.16 | 0.13 | 86 | 1008.2 |
| 20260507131457 | 52 | 319 | 0.0 | 1.7 | 0.00 | 0.16 | 0.13 | 87 | 1008.1 |
| 20260507130955 | 52 | 303 | 0.0 | 0.9 | 0.00 | 0.16 | 0.13 | 88 | 1008.0 |
| 20260507130456 | 51 | 319 | 0.0 | 0.9 | 0.00 | 0.16 | 0.13 | 88 | 1008.1 |
| 20260507125955 | 51 | 312 | 0.0 | 0.9 | 0.00 | 0.16 | 0.13 | 88 | 1008.2 |
| 20260507125455 | 51 | 330 | 0.0 | 0.9 | 0.00 | 0.16 | 0.13 | 90 | 1008.2 |
| 20260507124955 | 51 | 276 | 0.0 | 1.7 | 0.00 | 0.16 | 0.13 | 91 | 1008.3 |
| 20260507124456 | 50 | 338 | 0.0 | 1.7 | 0.00 | 0.16 | 0.13 | 92 | 1008.2 |
| 20260507123956 | 50 | 0 | 0.0 | 0.0 | 0.00 | 0.16 | 0.13 | 92 | 1008.1 |
| 20260507123715 | 50 | 319 | 0.0 | 0.0 | 0.00 | 0.16 | 0.13 | 93 | 1008.1 |
| 20260507122953 | 50 | 330 | 0.0 | 0.0 | 0.00 | 0.16 | 0.13 | 93 | 1008.1 |
| 20260507122457 | 50 | 337 | 0.0 | 0.0 | 0.00 | 0.16 | 0.13 | 94 | 1008.2 |
| 20260507121955 | 49 | 25 | 0.0 | 0.0 | 0.00 | 0.16 | 0.13 | 93 | 1008.4 |
| 20260507121719 | 49 | 306 | 0.0 | 0.0 | 0.00 | 0.16 | 0.13 | 93 | 1008.5 |
| 20260507120954 | 49 | 306 | 0.0 | 0.0 | 0.00 | 0.16 | 0.13 | 94 | 1008.5 |
| 20260507120455 | 49 | 316 | 0.0 | 0.0 | 0.00 | 0.16 | 0.13 | 94 | 1008.2 |
| 20260507115954 | 49 | 320 | 0.0 | 0.0 | 0.00 | 0.16 | 0.13 | 94 | 1008.0 |
| 20260507115454 | 49 | 320 | 0.0 | 0.0 | 0.00 | 0.16 | 0.13 | 93 | 1008.0 |
| 20260507115218 | 49 | 305 | 0.0 | 0.0 | 0.00 | 0.16 | 0.13 | 93 | 1007.9 |
| 20260507114455 | 49 | 305 | 0.0 | 0.0 | 0.00 | 0.16 | 0.13 | 94 | 1008.1 |
| 20260507113954 | 49 | 302 | 0.0 | 0.9 | 0.00 | 0.16 | 0.13 | 93 | 1008.0 |
| 20260507113454 | 49 | 302 | 0.0 | 0.9 | 0.00 | 0.16 | 0.13 | 93 | 1008.1 |
| 20260507112954 | 49 | 340 | 0.0 | 0.9 | 0.01 | 0.16 | 0.13 | 93 | 1008.1 |
| 20260507112451 | 49 | 300 | 0.0 | 0.9 | 0.01 | 0.16 | 0.13 | 93 | 1008.0 |
| 20260507111953 | 49 | 302 | 0.0 | 0.0 | 0.02 | 0.16 | 0.13 | 93 | 1008.1 |
| 20260507111717 | 48 | 298 | 0.0 | 0.0 | 0.02 | 0.16 | 0.13 | 93 | 1008.0 |
| 20260507110943 | 48 | 298 | 0.0 | 0.0 | 0.02 | 0.16 | 0.13 | 93 | 1007.7 |
| 20260507110431 | 48 | 298 | 0.0 | 0.0 | 0.02 | 0.16 | 0.13 | 93 | 1007.8 |
| 20260507110408 | 48 | 298 | 0.0 | 0.0 | 0.02 | 0.14 | 0.13 | 93 | 1007.7 |
| 20260507105431 | 48 | 298 | 0.0 | 0.0 | 0.02 | 0.14 | 0.13 | 93 | 1007.8 |
| 20260507104932 | 48 | 298 | 0.0 | 0.0 | 0.03 | 0.14 | 0.13 | 93 | 1007.8 |
| 20260507104657 | 48 | 298 | 0.0 | 0.0 | 0.03 | 0.14 | 0.13 | 93 | 1007.4 |
| 20260507103931 | 48 | 296 | 0.0 | 0.0 | 0.03 | 0.14 | 0.13 | 93 | 1007.6 |
| 20260507103430 | 48 | 296 | 0.0 | 0.0 | 0.03 | 0.14 | 0.13 | 93 | 1007.5 |
| 20260507102931 | 48 | 296 | 0.0 | 0.0 | 0.02 | 0.14 | 0.13 | 93 | 1007.5 |
| 20260507102658 | 48 | 296 | 0.0 | 0.0 | 0.03 | 0.14 | 0.13 | 93 | 1007.7 |
| 20260507101931 | 48 | 302 | 0.0 | 0.0 | 0.02 | 0.14 | 0.12 | 92 | 1007.9 |
| 20260507101432 | 48 | 302 | 0.0 | 0.0 | 0.02 | 0.14 | 0.12 | 93 | 1008.0 |
| 20260507100932 | 48 | 302 | 0.0 | 0.0 | 0.02 | 0.14 | 0.12 | 92 | 1007.9 |
| 20260507100432 | 48 | 302 | 0.0 | 0.0 | 0.03 | 0.14 | 0.12 | 92 | 1007.7 |
| 20260507095930 | 48 | 302 | 0.0 | 0.0 | 0.02 | 0.11 | 0.11 | 92 | 1007.7 |
| 20260507095432 | 48 | 302 | 0.0 | 0.0 | 0.02 | 0.11 | 0.10 | 92 | 1007.7 |
| 20260507094933 | 48 | 302 | 0.0 | 0.0 | 0.02 | 0.11 | 0.10 | 92 | 1007.7 |
| 20260507094432 | 48 | 302 | 0.0 | 0.0 | 0.02 | 0.11 | 0.10 | 92 | 1007.8 |
| 20260507093931 | 48 | 302 | 0.0 | 0.0 | 0.03 | 0.11 | 0.10 | 92 | 1007.6 |
| 20260507093432 | 48 | 302 | 0.0 | 0.0 | 0.03 | 0.11 | 0.10 | 92 | 1007.1 |
| 20260507092932 | 48 | 302 | 0.0 | 0.0 | 0.04 | 0.11 | 0.10 | 92 | 1007.1 |
| 20260507092431 | 48 | 317 | 0.0 | 0.0 | 0.04 | 0.11 | 0.09 | 92 | 1007.4 |
| 20260507091931 | 49 | 337 | 0.0 | 0.0 | 0.04 | 0.11 | 0.09 | 92 | 1007.4 |
| 20260507091431 | 49 | 338 | 0.0 | 1.7 | 0.05 | 0.11 | 0.09 | 91 | 1007.3 |
| 20260507090931 | 49 | 0 | 0.0 | 1.7 | 0.05 | 0.11 | 0.09 | 91 | 1007.2 |
| 20260507090432 | 49 | 331 | 0.0 | 0.0 | 0.05 | 0.11 | 0.09 | 91 | 1007.1 |
| 20260507085930 | 49 | 333 | 0.0 | 0.0 | 0.05 | 0.06 | 0.09 | 91 | 1007.2 |
| 20260507085431 | 49 | 305 | 0.0 | 0.9 | 0.06 | 0.06 | 0.09 | 91 | 1007.1 |
| 20260507084932 | 49 | 334 | 0.0 | 0.9 | 0.05 | 0.06 | 0.08 | 91 | 1007.1 |
| 20260507084431 | 49 | 341 | 0.0 | 0.9 | 0.05 | 0.06 | 0.08 | 91 | 1007.3 |
| 20260507083931 | 49 | 343 | 0.0 | 0.9 | 0.06 | 0.06 | 0.07 | 91 | 1007.4 |
| 20260507083432 | 50 | 327 | 0.0 | 0.9 | 0.06 | 0.06 | 0.07 | 91 | 1007.3 |
| 20260507082932 | 50 | 327 | 0.0 | 0.9 | 0.06 | 0.06 | 0.06 | 90 | 1007.2 |
| 20260507082431 | 50 | 327 | 0.0 | 0.0 | 0.05 | 0.06 | 0.06 | 90 | 1007.3 |
| 20260507082153 | 50 | 327 | 0.0 | 0.0 | 0.05 | 0.06 | 0.06 | 90 | 1007.4 |
| 20260507081430 | 50 | 327 | 0.0 | 0.0 | 0.04 | 0.06 | 0.05 | 90 | 1007.1 |
| 20260507081153 | 50 | 327 | 0.0 | 0.0 | 0.04 | 0.06 | 0.05 | 89 | 1007.1 |
| 20260507080432 | 50 | 319 | 0.0 | 0.0 | 0.03 | 0.06 | 0.04 | 89 | 1007.0 |
| 20260507075931 | 51 | 319 | 0.0 | 0.9 | 0.03 | 0.03 | 0.04 | 88 | 1007.4 |
| 20260507075431 | 51 | 317 | 0.0 | 0.9 | 0.02 | 0.03 | 0.03 | 88 | 1007.7 |
| 20260507074931 | 51 | 265 | 0.0 | 0.0 | 0.02 | 0.03 | 0.03 | 88 | 1007.5 |
| 20260507074431 | 52 | 344 | 0.0 | 0.0 | 0.02 | 0.03 | 0.02 | 87 | 1007.5 |
| 20260507073933 | 53 | 309 | 0.0 | 0.9 | 0.00 | 0.03 | 0.01 | 85 | 1007.4 |
| 20260507073431 | 53 | 309 | 0.0 | 3.5 | 0.00 | 0.03 | 0.01 | 85 | 1007.2 |
| 20260507073159 | 53 | 300 | 0.0 | 3.5 | 0.00 | 0.03 | 0.01 | 85 | 1007.4 |
| 20260507072653 | 53 | 336 | 0.0 | 0.0 | 0.00 | 0.03 | 0.01 | 85 | 1007.0 |
| 20260507071932 | 54 | 320 | 0.0 | 0.0 | 0.00 | 0.03 | 0.01 | 84 | 1006.6 |
| 20260507071653 | 54 | 303 | 0.0 | 0.0 | 0.00 | 0.03 | 0.01 | 84 | 1006.3 |
| 20260507070931 | 54 | 303 | 0.0 | 0.0 | 0.00 | 0.03 | 0.01 | 84 | 1006.3 |
| 20260507070431 | 54 | 303 | 0.0 | 2.6 | 0.00 | 0.03 | 0.01 | 84 | 1006.1 |
| 20260507070410 | 54 | 303 | 0.0 | 2.6 | 0.00 | 0.03 | 0.01 | 83 | 1006.0 |
| 20260507065659 | 54 | 306 | 0.0 | 1.7 | 0.00 | 0.03 | 0.01 | 84 | 1006.3 |
| 20260507064931 | 54 | 258 | 0.0 | 0.9 | 0.00 | 0.03 | 0.01 | 85 | 1006.3 |
| 20260507064657 | 54 | 306 | 0.0 | 0.9 | 0.00 | 0.03 | 0.01 | 85 | 1006.3 |
| 20260507064415 | 55 | 114 | 0.0 | 0.9 | 0.00 | 0.03 | 0.01 | 85 | 1006.4 |
| 20260507063657 | 55 | 313 | 0.0 | 0.0 | 0.00 | 0.03 | 0.01 | 88 | 1006.4 |
| 20260507062931 | 56 | 319 | 0.0 | 0.0 | 0.00 | 0.03 | 0.01 | 89 | 1006.5 |
| 20260507062431 | 56 | 316 | 0.0 | 0.0 | 0.00 | 0.03 | 0.01 | 89 | 1006.5 |
| 20260507061931 | 56 | 314 | 0.0 | 0.0 | 0.00 | 0.03 | 0.01 | 89 | 1006.4 |
| 20260507061432 | 0 | 0.0 | 0.0 | 0.00 | 0.03 | 0.01 | 1006.3 | ||
| 20260507060903 | 0 | 0.0 | 0.0 | 0.00 | 0.03 | 0.01 | 1006.3 | ||
| 20260507060628 | 56 | 307 | 0.0 | 0.0 | 0.00 | 0.03 | 0.01 | 89 | 1006.4 |
| 20260507055905 | 56 | 307 | 0.0 | 0.0 | 0.00 | 0.03 | 0.01 | 89 | 1006.5 |
| 20260507055403 | 56 | 307 | 0.0 | 0.0 | 0.01 | 0.03 | 0.01 | 89 | 1006.6 |
| 20260507054902 | 57 | 327 | 0.0 | 0.0 | 0.01 | 0.03 | 0.01 | 89 | 1006.6 |
| 20260507054623 | 57 | 329 | 0.0 | 0.9 | 0.01 | 0.03 | 0.01 | 89 | 1006.8 |
| 20260507053902 | 57 | 329 | 0.0 | 0.9 | 0.01 | 0.03 | 0.01 | 89 | 1006.7 |
| 20260507053402 | 57 | 326 | 0.0 | 0.9 | 0.01 | 0.03 | 0.01 | 89 | 1006.6 |
| 20260507052903 | 57 | 0 | 0.0 | 1.7 | 0.01 | 0.03 | 0.01 | 89 | 1006.6 |
| 20260507052402 | 57 | 329 | 0.0 | 1.7 | 0.01 | 0.03 | 0.01 | 89 | 1007.0 |
| 20260507051902 | 57 | 302 | 0.0 | 0.9 | 0.01 | 0.03 | 0.01 | 89 | 1006.8 |
| 20260507051402 | 57 | 279 | 0.0 | 1.7 | 0.01 | 0.03 | 0.01 | 89 | 1006.8 |
| 20260507050903 | 57 | 300 | 0.0 | 3.5 | 0.01 | 0.03 | 0.01 | 89 | 1006.7 |
| 20260507050404 | 57 | 323 | 0.0 | 3.5 | 0.01 | 0.03 | 0.01 | 90 | 1006.5 |
| 20260507045903 | 58 | 319 | 0.0 | 2.6 | 0.01 | 0.02 | 0.01 | 91 | 1006.7 |
| 20260507045402 | 58 | 303 | 0.0 | 0.9 | 0.00 | 0.02 | 0.00 | 91 | 1006.7 |
| 20260507044902 | 58 | 317 | 0.0 | 0.0 | 0.00 | 0.02 | 0.00 | 92 | 1006.8 |
| 20260507044404 | 58 | 344 | 0.0 | 0.0 | 0.00 | 0.02 | 0.00 | 92 | 1006.6 |
| 20260507043902 | 58 | 274 | 0.0 | 0.0 | 0.00 | 0.02 | 0.00 | 92 | 1006.6 |
| 20260507043403 | 59 | 321 | 0.0 | 0.0 | 0.00 | 0.02 | 0.00 | 92 | 1006.6 |
| 20260507042902 | 59 | 283 | 0.0 | 0.0 | 0.00 | 0.02 | 0.00 | 92 | 1006.6 |
| 20260507042403 | 59 | 298 | 0.0 | 0.0 | 0.00 | 0.02 | 0.00 | 92 | 1006.6 |
| 20260507041903 | 59 | 298 | 0.0 | 0.0 | 0.00 | 0.02 | 0.00 | 92 | 1006.7 |
| 20260507041403 | 59 | 298 | 0.0 | 0.0 | 0.00 | 0.02 | 0.00 | 92 | 1006.5 |
| 20260507040902 | 59 | 299 | 0.0 | 0.0 | 0.00 | 0.02 | 0.00 | 92 | 1006.6 |
| 20260507040404 | 59 | 299 | 0.0 | 0.0 | 0.00 | 0.02 | 0.00 | 92 | 1006.7 |
| 20260507035903 | 59 | 299 | 0.0 | 0.0 | 0.00 | 0.02 | 0.02 | 92 | 1006.6 |
| 20260507035404 | 59 | 299 | 0.0 | 0.0 | 0.00 | 0.02 | 0.02 | 92 | 1006.7 |
| 20260507034903 | 59 | 299 | 0.0 | 6.1 | 0.00 | 0.02 | 0.02 | 92 | 1006.7 |
| 20260507034404 | 59 | 309 | 0.9 | 6.1 | 0.00 | 0.02 | 0.02 | 92 | 1006.8 |
| 20260507033903 | 59 | 258 | 0.0 | 1.7 | 0.00 | 0.02 | 0.02 | 91 | 1006.7 |
| 20260507033403 | 59 | 305 | 0.0 | 0.0 | 0.00 | 0.02 | 0.02 | 92 | 1006.7 |
| 20260507032901 | 59 | 302 | 0.0 | 0.0 | 0.00 | 0.02 | 0.02 | 92 | 1006.8 |
| 20260507032403 | 59 | 210 | 0.0 | 5.2 | 0.00 | 0.02 | 0.02 | 92 | 1006.6 |
| 20260507031902 | 59 | 275 | 0.0 | 5.2 | 0.00 | 0.02 | 0.02 | 92 | 1006.5 |
| 20260507031849 | 59 | 224 | 0.0 | 1.7 | 0.00 | 0.02 | 0.02 | 92 | 1006.4 |
| 20260507030902 | 59 | 196 | 0.0 | 0.9 | 0.00 | 0.02 | 0.02 | 92 | 1006.4 |
| 20260507030405 | 59 | 269 | 0.0 | 0.9 | 0.00 | 0.02 | 0.02 | 92 | 1006.5 |
| 20260507025904 | 59 | 317 | 0.0 | 0.0 | 0.00 | 0.02 | 0.02 | 92 | 1006.3 |
| 20260507025402 | 59 | 3 | 0.0 | 0.0 | 0.00 | 0.02 | 0.02 | 92 | 1006.4 |
| 20260507024902 | 59 | 283 | 0.0 | 0.0 | 0.00 | 0.02 | 0.02 | 92 | 1006.4 |
| 20260507024403 | 59 | 340 | 0.0 | 0.0 | 0.00 | 0.02 | 0.02 | 92 | 1006.3 |
| 20260507023902 | 59 | 0 | 0.0 | 0.9 | 0.00 | 0.02 | 0.02 | 92 | 1006.3 |
| 20260507023402 | 59 | 210 | 0.0 | 0.9 | 0.00 | 0.02 | 0.02 | 92 | 1006.2 |
| 20260507022902 | 59 | 210 | 0.0 | 0.0 | 0.00 | 0.02 | 0.02 | 92 | 1006.3 |
| 20260507022404 | 59 | 212 | 0.0 | 0.0 | 0.00 | 0.02 | 0.02 | 92 | 1006.3 |
| 20260507021901 | 59 | 216 | 0.0 | 0.0 | 0.00 | 0.02 | 0.02 | 92 | 1006.4 |
| 20260507021402 | 58 | 213 | 0.0 | 0.0 | 0.00 | 0.02 | 0.02 | 92 | 1006.4 |
| 20260507020903 | 58 | 209 | 0.0 | 0.0 | 0.00 | 0.02 | 0.02 | 92 | 1006.4 |
| 20260507020402 | 58 | 206 | 0.0 | 0.0 | 0.00 | 0.02 | 0.02 | 92 | 1006.4 |
| 20260507020130 | 58 | 204 | 0.0 | 0.0 | 0.00 | 0.02 | 0.02 | 92 | 1006.4 |
| 20260507015402 | 58 | 283 | 0.0 | 0.0 | 0.00 | 0.02 | 0.02 | 92 | 1006.3 |
| 20260507014904 | 58 | 214 | 0.0 | 1.7 | 0.00 | 0.02 | 0.02 | 92 | 1006.3 |
| 20260507014620 | 58 | 244 | 0.0 | 1.7 | 0.00 | 0.02 | 0.02 | 92 | 1006.4 |
| 20260507013904 | 58 | 190 | 0.0 | 0.0 | 0.00 | 0.02 | 0.02 | 92 | 1006.3 |
| 20260507013402 | 58 | 199 | 0.0 | 0.0 | 0.00 | 0.02 | 0.02 | 92 | 1006.3 |
| 20260507013128 | 58 | 195 | 0.0 | 0.0 | 0.00 | 0.02 | 0.02 | 92 | 1006.2 |
| 20260507012402 | 58 | 196 | 0.0 | 0.0 | 0.00 | 0.02 | 0.02 | 92 | 1006.5 |
| 20260507012127 | 58 | 195 | 0.0 | 0.0 | 0.00 | 0.02 | 0.02 | 93 | 1006.6 |
| 20260507011404 | 58 | 190 | 0.0 | 2.6 | 0.00 | 0.02 | 0.02 | 93 | 1006.7 |
| 20260507010903 | 58 | 0 | 0.0 | 2.6 | 0.00 | 0.02 | 0.02 | 93 | 1006.7 |
| 20260507010403 | 58 | 276 | 0.0 | 1.7 | 0.00 | 0.02 | 0.02 | 93 | 1006.7 |
| 20260507005908 | 58 | 161 | 0.0 | 0.0 | 0.00 | 0.02 | 0.02 | 93 | 1006.7 |
| 20260507005402 | 58 | 251 | 0.0 | 0.0 | 0.00 | 0.02 | 0.02 | 92 | 1006.7 |
| 20260507004905 | 58 | 251 | 0.0 | 0.0 | 0.00 | 0.02 | 0.02 | 92 | 1006.7 |
| 20260507004402 | 58 | 271 | 0.0 | 0.0 | 0.00 | 0.02 | 0.02 | 92 | 1006.8 |
| 20260507003904 | 57 | 234 | 0.0 | 0.9 | 0.00 | 0.02 | 0.02 | 92 | 1006.7 |
| 20260507003403 | 57 | 195 | 0.0 | 6.1 | 0.00 | 0.02 | 0.02 | 92 | 1006.6 |
| 20260507002903 | 57 | 235 | 0.0 | 6.1 | 0.00 | 0.02 | 0.02 | 92 | 1006.8 |
| 20260507002409 | 57 | 172 | 0.0 | 1.7 | 0.00 | 0.02 | 0.02 | 92 | 1006.5 |
| 20260507002404 | 57 | 195 | 0.0 | 2.6 | 0.00 | 0.02 | 0.02 | 92 | 1006.7 |
| 20260507001404 | 57 | 185 | 0.0 | 3.5 | 0.00 | 0.02 | 0.02 | 92 | 1006.5 |
| 20260507000904 | 57 | 207 | 0.0 | 3.5 | 0.00 | 0.02 | 0.02 | 92 | 1006.5 |
| 20260507000405 | 57 | 200 | 0.0 | 0.9 | 0.00 | 0.02 | 0.02 | 92 | 1006.5 |
| 20260506235901 | 57 | 245 | 0.0 | 0.9 | 0.00 | 0.02 | 0.02 | 92 | 1006.5 |
| 20260506235359 | 58 | 261 | 0.0 | 0.9 | 0.00 | 0.02 | 0.02 | 92 | 1006.3 |
| 20260506234852 | 58 | 220 | 0.0 | 0.9 | 0.00 | 0.02 | 0.02 | 92 | 1006.5 |
| 20260506234352 | 58 | 227 | 0.0 | 1.7 | 0.00 | 0.02 | 0.02 | 92 | 1006.5 |
| 20260506233854 | 58 | 275 | 0.0 | 1.7 | 0.00 | 0.02 | 0.02 | 92 | 1006.3 |
| 20260506233350 | 58 | 261 | 0.0 | 1.7 | 0.00 | 0.02 | 0.02 | 91 | 1006.3 |
| 20260506232849 | 58 | 227 | 0.0 | 0.9 | 0.00 | 0.02 | 0.02 | 91 | 1006.3 |
| 20260506232331 | 58 | 227 | 0.0 | 0.9 | 0.00 | 0.02 | 0.02 | 91 | 1006.4 |
| 20260506231832 | 58 | 179 | 0.0 | 0.9 | 0.00 | 0.02 | 0.02 | 91 | 1006.5 |
| 20260506231331 | 58 | 199 | 0.0 | 0.9 | 0.00 | 0.02 | 0.02 | 91 | 1006.3 |
| 20260506230832 | 58 | 193 | 0.0 | 2.6 | 0.00 | 0.02 | 0.02 | 91 | 1006.5 |
| 20260506230331 | 58 | 204 | 0.0 | 2.6 | 0.00 | 0.02 | 0.02 | 90 | 1006.4 |
| 20260506230056 | 59 | 195 | 0.0 | 0.9 | 0.01 | 0.02 | 0.02 | 90 | 1006.4 |
| 20260506225331 | 59 | 203 | 0.0 | 0.0 | 0.01 | 0.02 | 0.02 | 90 | 1006.4 |
| 20260506224833 | 59 | 214 | 0.0 | 0.0 | 0.01 | 0.02 | 0.02 | 91 | 1006.5 |
| 20260506224332 | 59 | 213 | 0.0 | 0.0 | 0.01 | 0.02 | 0.02 | 91 | 1006.4 |
| 20260506223832 | 59 | 216 | 0.0 | 0.0 | 0.01 | 0.02 | 0.02 | 91 | 1006.4 |
| 20260506223332 | 59 | 264 | 0.0 | 0.9 | 0.01 | 0.02 | 0.02 | 91 | 1006.3 |
| 20260506222833 | 59 | 207 | 0.0 | 1.7 | 0.01 | 0.02 | 0.02 | 91 | 1006.3 |
| 20260506222330 | 59 | 309 | 0.0 | 1.7 | 0.01 | 0.02 | 0.02 | 91 | 1006.3 |
| 20260506221831 | 59 | 212 | 0.0 | 3.5 | 0.01 | 0.02 | 0.02 | 91 | 1006.5 |
| 20260506221331 | 59 | 219 | 0.0 | 3.5 | 0.01 | 0.02 | 0.02 | 91 | 1006.4 |
| 20260506220831 | 59 | 183 | 0.0 | 2.6 | 0.01 | 0.02 | 0.02 | 91 | 1006.6 |
| 20260506220330 | 59 | 210 | 0.0 | 1.7 | 0.01 | 0.02 | 0.02 | 91 | 1006.7 |
| 20260506215831 | 0 | 192 | 0.0 | 0.0 | 0.00 | 0.02 | 0.02 | 1006.8 | |
| 20260506215331 | 59 | 248 | 0.0 | 0.9 | 0.00 | 0.02 | 0.02 | 90 | 1006.8 |
| 20260506214831 | 59 | 248 | 0.0 | 0.9 | 0.00 | 0.02 | 0.02 | 90 | 1006.8 |
| 20260506214331 | 59 | 165 | 0.0 | 0.0 | 0.01 | 0.02 | 0.02 | 90 | 1006.7 |
| 20260506213832 | 59 | 172 | 0.0 | 0.9 | 0.01 | 0.02 | 0.02 | 90 | 1006.8 |
| 20260506213331 | 59 | 217 | 0.0 | 0.9 | 0.01 | 0.02 | 0.02 | 90 | 1006.8 |
| 20260506212823 | 59 | 200 | 0.0 | 1.7 | 0.01 | 0.02 | 0.02 | 90 | 1006.9 |
| 20260506212324 | 59 | 192 | 0.0 | 1.7 | 0.01 | 0.02 | 0.02 | 90 | 1007.1 |
| 20260506211822 | 59 | 199 | 0.0 | 1.7 | 0.01 | 0.02 | 0.02 | 90 | 1007.1 |
| 20260506211321 | 59 | 282 | 0.0 | 1.7 | 0.01 | 0.02 | 0.02 | 90 | 1007.0 |
| 20260506211315 | 59 | 185 | 0.0 | 4.3 | 0.01 | 0.02 | 0.02 | 90 | 1007.2 |
| 20260506210319 | 59 | 193 | 0.0 | 4.3 | 0.01 | 0.02 | 0.02 | 90 | 1007.1 |
| 20260506205820 | 59 | 214 | 0.0 | 1.7 | 0.01 | 0.01 | 0.02 | 90 | 1007.1 |
| 20260506205540 | 60 | 209 | 0.0 | 1.7 | 0.02 | 0.01 | 0.02 | 89 | 1007.1 |
| 20260506204819 | 60 | 197 | 0.0 | 0.9 | 0.02 | 0.01 | 0.02 | 89 | 1007.2 |
| 20260506204320 | 60 | 259 | 0.0 | 0.0 | 0.01 | 0.01 | 0.01 | 88 | 1007.3 |
| 20260506203819 | 60 | 186 | 0.0 | 0.9 | 0.01 | 0.01 | 0.01 | 88 | 1007.4 |
| 20260506203318 | 60 | 178 | 0.0 | 0.9 | 0.01 | 0.01 | 0.01 | 88 | 1007.4 |
| 20260506202819 | 60 | 173 | 0.0 | 0.9 | 0.01 | 0.01 | 0.01 | 88 | 1007.4 |
| 20260506202806 | 60 | 169 | 0.0 | 4.3 | 0.01 | 0.01 | 0.01 | 87 | 1007.4 |
| 20260506201818 | 60 | 180 | 0.0 | 4.3 | 0.01 | 0.01 | 0.01 | 87 | 1007.5 |
| 20260506201317 | 61 | 209 | 0.0 | 0.0 | 0.01 | 0.01 | 0.01 | 87 | 1007.5 |
| 20260506200819 | 61 | 185 | 0.0 | 0.0 | 0.01 | 0.01 | 0.01 | 87 | 1007.4 |
| 20260506200803 | 61 | 161 | 0.0 | 0.9 | 0.01 | 0.01 | 0.01 | 87 | 1007.5 |
| 20260506195819 | 61 | 186 | 0.0 | 0.9 | 0.01 | 0.00 | 0.01 | 86 | 1007.5 |
| 20260506195317 | 61 | 228 | 0.0 | 2.6 | 0.00 | 0.00 | 0.00 | 86 | 1007.5 |
| 20260506195038 | 62 | 203 | 0.0 | 2.6 | 0.00 | 0.00 | 0.00 | 85 | 1007.4 |
| 20260506194317 | 62 | 171 | 0.0 | 0.9 | 0.00 | 0.00 | 0.00 | 84 | 1007.3 |
| 20260506193820 | 62 | 202 | 0.0 | 0.9 | 0.00 | 0.00 | 0.00 | 83 | 1007.3 |
| 20260506193317 | 62 | 214 | 0.0 | 6.1 | 0.00 | 0.00 | 0.00 | 82 | 1007.5 |
| 20260506192817 | 63 | 310 | 0.9 | 6.1 | 0.00 | 0.00 | 0.00 | 82 | 1007.8 |
| 20260506192542 | 63 | 186 | 0.0 | 0.9 | 0.00 | 0.00 | 0.00 | 81 | 1007.7 |
| 20260506191819 | 64 | 258 | 0.0 | 0.0 | 0.00 | 0.00 | 0.00 | 80 | 1007.7 |
| 20260506191535 | 64 | 274 | 0.0 | 7.8 | 0.00 | 0.00 | 0.00 | 79 | 1007.6 |
| 20260506190818 | 64 | 166 | 0.0 | 7.8 | 0.00 | 0.00 | 0.00 | 79 | 1007.7 |
| 20260506190316 | 65 | 262 | 0.0 | 3.5 | 0.00 | 0.00 | 0.00 | 77 | 1007.7 |